Regional Weather Roundup
Issued by NWS

Home | Current Version | Previous Version | Graphics & Text | Print | Product List | Glossary Off
Versions: 1 2 3 4 5 6 7 8 9 10 11 12 13 14 15 16 17 18 19 20 21 22 23 24 25 26 27 28 29 30 31 32 33 34 35 36 37 38 39 40 41 42 43 44 45 46 47 48 49 50

000
ASUS43 KMKX 260211
RWRWI

WISCONSIN REGIONAL WEATHER ROUNDUP
NATIONAL WEATHER SERVICE MILWAUKEE/SULLIVAN WI
900 PM CDT WED MAY 25 2016

NOTE: "FAIR" INDICATES FEW OR NO CLOUDS BELOW 12,000 FEET WITH NO
SIGNIFICANT WEATHER AND/OR OBSTRUCTIONS TO VISIBILITY.

WIZ001-002-006>008-014>016-023>028-260300-
NORTHWEST WISCONSIN

CITY           SKY/WX    TMP DP  RH WIND       PRES   REMARKS
SUPERIOR ARPT  CLOUDY    43  43  99 NE10      29.91F
ASHLAND        RAIN      50  50 100 NW7       29.91F
HAYWARD        CLOUDY    54  53  97 NE7       29.89R
SIREN          CLOUDY    59  57  94 CALM      29.87S
CUMBERLAND     CLOUDY    61  59  94 CALM      29.86S
RICE LAKE      CLOUDY    62  60  93 CALM      29.88R
CHETEK         CLOUDY    62  62  99 NW3       29.86R
LADYSMITH      CLOUDY    65  63  93 NW13G18   29.86R
EAU CLAIRE     PTCLDY    64  63  96 CALM      29.84R
MENOMONIE      CLOUDY    66  65  99 E3        29.85R
NEW RICHMOND   CLEAR     65  63  93 NE6       29.84S
OSCEOLA        CLEAR     65  65 100 E6        29.85F
$$

WIZ003>005-009-010-017-018-260300-
NORTH CENTRAL WISCONSIN

CITY           SKY/WX    TMP DP  RH WIND       PRES   REMARKS
MANITOWISH WTR NOT AVBL
ARBOR VITAE    HVY RAIN  62  60  93 NE6       29.88F
WOODRUFF       HVY RAIN  62  60  93 NE6       29.88F
RHINELANDER    RAIN      62  59  90 E14       29.88S FOG
EAGLE RIVER    RAIN      61  60  97 E15       29.89S
LAND O LAKES   HVY RAIN  62  61  96 E8        29.92R
PHILLIPS       RAIN      61  61 100 E7        29.83F
TOMAHAWK       LGT RAIN  60  59  96 E14G22    29.85F
MEDFORD        CLOUDY    62  62 100 SW3       29.86R
MERRILL        RAIN      62  62 100 W9        29.87R
$$

WIZ029-030-035-036-043>047-260300-
CENTRAL WISCONSIN

CITY           SKY/WX    TMP DP  RH WIND       PRES   REMARKS
WAUSAU         LGT RAIN  64  32  30 W15       29.87R
MOSINEE        RAIN      63  63 100 E10       29.86F FOG
MARSHFIELD     LGT RAIN  65  62  90 SE6       29.86S
STEVENS POINT  MOCLDY    61  60  97 SE13      29.88S
WAUPACA        LGT RAIN  64  64  97 CALM      29.90R
WAUTOMA        LGT RAIN  64  62  93 E7        29.89R
WISC RAPIDS    PTCLDY    64  61  90 S5        29.88R
CAMP DOUGLAS   PTCLDY    63  63 100 E3        29.87R FOG
$$

WIZ011>013-019>022-031-037>040-048>050-260300-
NORTHEAST WISCONSIN

CITY           SKY/WX    TMP DP  RH WIND       PRES   REMARKS
ANTIGO         LGT RAIN  58  57  99 SE16      29.90R
SHAWANO        CLOUDY    60  58  92 NE3       29.91R
OCONTO         CLOUDY   N/A N/A N/A SE3       29.91F
STURGEON BAY   NOT AVBL
GREEN BAY      CLOUDY    60  58  92 E8        29.91F
MANITOWOC      LGT RAIN  55  53  93 NE7       29.94R
APPLETON       LGT RAIN  59  59 100 E8        29.89S
CLINTONVILLE   HVY RAIN  59  59 100 E7        29.90R
OSHKOSH        LGT RAIN  60  58  92 E9        29.91R
$$

WIZ032>034-041-042-053>061-260300-
SOUTHWEST WISCONSIN

CITY           SKY/WX    TMP DP  RH WIND       PRES   REMARKS
LA CROSSE      CLEAR     72  64  76 S3        29.83R
SPARTA         MOCLDY    70  67  90 E3        29.87R
VIROQUA        CLEAR     72  62  70 W3        29.88R
BOSCOBEL       PTCLDY    72  65  78 CALM      29.85R
PRAIRIE DU CHI PTCLDY    76  58  53 CALM      29.84R
PLATTEVILLE    CLEAR     73  60  63 S7        29.88R
$$

WIZ056-057-062-063-064-067-068-260300-
SOUTH CENTRAL WISCONSIN

CITY           SKY/WX    TMP DP  RH WIND       PRES   REMARKS
REEDSBURG      CLOUDY    68  66  93 CALM      29.86R
BARABOO/DELLS  CLOUDY    69  64  84 CALM      29.87R
LONE ROCK      CLOUDY    77  61  57 W5        29.85R
MINERAL POINT  CLEAR     73  59  60 S5        29.88R
MADISON        MOCLDY    72  64  76 S15       29.86R
MIDDLETON      PTCLDY    75  63  65 S8        29.87R
WATERTOWN      MOCLDY    68  67  99 SE8       29.88S
MONROE         PTCLDY    68  63  83 S7        29.89R
JANESVILLE     MOCLDY    70  66  88 SE8       29.88R
$$

WIZ051-052-058>065-066-070>072-260300-
SOUTHEAST WISCONSIN

CITY           SKY/WX    TMP DP  RH WIND       PRES   REMARKS
MILWAUKEE      LGT RAIN  54  53  97 E5        29.94R FOG
WAUKESHA       LGT RAIN  59  57  94 E8        29.92F FOG
MILWAUKEE/TIMM RAIN      57  55  94 E3        29.93R
RACINE         LGT RAIN  58  56  93 NE5       29.96R FOG
BURLINGTON     CLOUDY    66  64  91 SE7       29.92S
KENOSHA        LGT RAIN  67  64  90 S12       29.92R
FOND DU LAC    RAIN      62  60  93 E9        29.91R FOG
SHEBOYGAN      RAIN      54  52  93 S3        29.92R FOG
WEST BEND      CLOUDY    59  57  94 SE6       29.92F FOG
JUNEAU         CLOUDY    65  63  94 SE8       29.90F
$$

LSZ147-162-260300-
LAKE SUPERIOR

STATION/POSITION TIME  TEMP    WIND        PRES    WAVE
                       AIR SEA DIR/SP/G            HT/PER
                 (UTC) (F)     (DEG/KT/KT) (MB)    (FT/S)
W MID LAKE BUOY  0150   40 38   40/ 14/ 16 1013.9R   3/ 5
DEVILS ISLAND    0100   44     340/  8/  9 1015.1F
SAXON HARBOR     0100   47      CALM  /  3 1013.5S
$$

LMZ867-665-643>646-260300-
LAKE MICHIGAN

STATION/POSITION TIME  TEMP    WIND        PRES    WAVE
                       AIR SEA DIR/SP/G            HT/PER
                 (UTC) (F)     (DEG/KT/KT) (MB)    (FT/S)
CHAMBERS ISLAND  0100   56     340/  5/  6 1013.9
N MID LAKE BUOY  0150   50 45  110/  8/ 10 1013.3F   1
NORTHPORT PIER   0100   54     160/  2/ 18 1013.5F
SISTER BAY       0120   60     130/  6/  9   N/A
ALGOMA LAKESHORE 0117           50/  8/ 12   N/A
KEWAUNEE LAKESHO 0100                      1012.6F
SHEBOYGAN LAKESH 0200   52      80/  2/  3 1014.1R
PORT WASHINGTON  0100   53      40/  6/  9 1013.9S
S MID LAKE BUOY  0150   58 51  150/ 14/ 16 1013.4R   1
KENOSHA   LAKESH 0200   62     180/ 10/ 15 1013.2R
$$

TC  - TEMPERATURE IN CELSIUS
VSB - VISIBILITY IN STATUTE MILES
WCI - WIND CHILL INDEX
HX  - HEAT INDEX





USA.gov is the U.S. government's official web portal to all federal, state and local government web resources and services.